Location: Esp�n
(42.4593°N, 0.2047°W)
Time: 01:19:00
(UTC+00:00)

Daily predictions for brighter satellites

Satellite Brightness Start Highest point End
(mag) Time Altitude Azimuth Time Altitude Azimuth Time Altitude Azimuth
STARLINK-1240 4.0 00:00:36 10° NW 00:03:59 58° NW 00:03:59 58° NW
Cosmos 1763 Rocket 3.3 00:05:58 70° SE 00:06:12 72° ESE 00:11:16 10° NNE
Cosmos 2227 Rocket 2.1 00:03:40 10° NNW 00:09:22 80° WSW 00:10:10 65° S
STARLINK-1216 4.2 00:05:36 10° NW 00:08:47 52° NW 00:08:47 52° NW
Landsat 4 4.3 00:06:23 10° N 00:09:24 55° N 00:09:24 55° N
Cosmos 1356 Rocket 3.8 00:10:08 10° NNW 00:13:55 60° WNW 00:13:55 60° WNW
STARLINK-1237 4.3 00:10:35 10° NW 00:13:34 46° WNW 00:13:34 46° WNW
Cosmos 1758 Rocket 4.4 00:15:28 39° E 00:15:28 39° E 00:19:32 10° NNE
SL-16 R/B 4.3 00:22:44 13° ESE 00:23:57 13° E 00:26:34 10° ENE
Nadezhda 1 Rocket 3.9 00:17:41 10° N 00:23:58 78° W 00:25:28 54° SSW
Cosmos 2208 Rocket 4.3 00:23:37 51° ESE 00:24:06 52° ESE 00:29:17 10° NNE
CZ-4 R/B 3.6 00:19:56 10° NNE 00:24:40 80° ESE 00:24:50 78° SE
Cosmos 1300 4.4 00:21:43 10° NNW 00:24:09 25° WNW 00:24:09 25° WNW
Cosmos 2285 Rocket 4.2 00:23:05 10° NNW 00:29:25 66° ENE 00:31:55 37° SE
USA 81 4.1 00:30:17 56° SE 00:31:05 65° E 00:36:20 10° N
CZ-2D R/B 3.9 00:30:01 10° NE 00:33:32 18° E 00:35:02 16° ESE
Cosmos-2242 3.7 00:30:00 10° N 00:34:04 44° ENE 00:34:23 43° E
USA 215 3.4 00:28:07 11° ESE 00:34:21 75° NE 00:40:54 10° NW
Meteor 2-10 Rocket 3.3 00:29:28 10° N 00:34:36 80° E 00:35:16 66° SSE
Cosmos 1626 Rocket 4.2 00:34:40 43° WNW 00:34:40 43° WNW 00:38:50 10° N
Meteor 1-21 Rocket 4.1 00:34:27 61° S 00:35:32 89° W 00:41:22 10° N
STARLINK-1272 4.4 00:42:02 39° NE 00:42:02 39° NE 00:44:23 10° NE
Cosmos 540 Rocket 3.3 00:41:07 67° SSE 00:41:41 74° ESE 00:46:48 10° NNE
STARLINK-1307 4.0 00:46:48 52° NE 00:46:48 52° NE 00:49:42 10° NE
STARLINK-1290 3.9 00:50:11 56° NNE 00:50:11 56° NNE 00:53:13 10° NE
Helios 1B rocket 2.7 00:46:21 10° N 00:50:24 58° WNW 00:50:24 58° WNW
Cosmos 1980 Rocket 2.1 00:51:50 59° SSW 00:52:58 83° ESE 00:58:39 10° NNE
STARLINK-1317 3.7 00:56:33 64° NNW 00:56:33 64° NNW 01:00:22 10° NE
Uosat 12 SS-18 rocket 3.9 00:53:43 10° NW 00:58:02 78° WSW 00:58:02 78° WSW
Meteor 1-29 3.7 00:55:36 10° N 00:58:11 48° NNW 00:58:11 48° NNW
Cosmos 1328 3.8 00:59:35 81° N 00:59:35 81° N 01:03:24 10° N
STARLINK-1274 3.9 01:00:56 53° N 01:00:56 53° N 01:04:02 10° NE
Cosmos 1455 2.8 00:57:06 10° NNW 01:00:05 47° NW 01:00:05 47° NW
Cosmos 2369 4.3 01:02:04 35° WSW 01:03:54 48° WNW 01:09:23 10° NNE
STARLINK-1291 3.8 01:04:15 56° NNW 01:04:15 56° NNW 01:07:54 10° NE
Meteor 1-11 4.4 01:03:54 45° SSE 01:05:28 63° E 01:10:59 10° NNE
Cosmos 1703 3.4 01:05:53 65° WNW 01:05:53 65° WNW 01:09:35 10° N
Cosmos 1937 Rocket 3.8 01:01:45 10° NNW 01:06:49 48° WSW 01:07:10 47° WSW
STARLINK-1264 3.9 01:07:26 53° NW 01:07:32 54° NNW 01:11:13 10° NE
Lacrosse 4 Rocket 2.8 01:04:43 10° NW 01:07:20 28° WNW 01:07:20 28° WNW
Cosmos 1825 Rocket 3.6 01:08:39 63° W 01:08:50 63° W 01:13:10 10° N
STARLINK-1267 3.9 01:10:40 49° NW 01:10:55 50° NNW 01:14:34 10° NE
NOSS 2-1 (C) 4.4 01:12:04 28° E 01:12:04 28° E 01:14:26 10° NE
Cosmos 2263 Rocket 3.0 01:06:01 10° NNW 01:11:25 46° ENE 01:15:58 14° SE
ADEOS II 4.3 01:08:25 10° NE 01:11:33 16° E 01:14:39 10° SE
Timation 1 Rocket 4.4 01:07:02 10° NNW 01:13:01 75° ENE 01:16:20 28° SE
STARLINK-64 3.9 01:14:12 51° ENE 01:14:12 51° ENE 01:17:00 10° ENE
SL-4 R/B 3.5 01:09:15 10° NW 01:13:54 45° NNE 01:18:25 10° E
Cosmos 2297 Rocket 3.8 01:11:08 10° NW 01:14:46 19° W 01:14:46 19° W
STARLINK-1287 4.3 01:16:13 41° ESE 01:16:13 41° ESE 01:19:38 10° ENE
NOSS 2-1 (D) 4.2 01:16:50 33° E 01:16:50 33° E 01:19:24 10° NE
STARLINK-1207 4.2 01:17:09 42° WNW 01:17:42 45° NNW 01:21:20 10° NE
Cosmos 2184 Rocket 4.2 01:16:26 35° SSE 01:18:57 62° E 01:25:03 10° NNE
Cosmos 372 Rocket 3.8 01:14:15 10° NNW 01:19:25 83° WSW 01:20:47 50° S
CZ-4C R/B 3.8 01:16:44 15° W 01:20:13 29° NW 01:25:26 10° NNE
NPP 4.4 01:15:44 10° NNE 01:20:51 43° E 01:22:54 30° SSE
STARLINK-1266 4.3 01:20:25 38° WNW 01:21:07 43° NNW 01:24:43 10° NE
BREEZE-M DEB (TANK) 4.2 01:23:14 20° NE 01:23:14 20° NE 01:24:09 10° NE
STARLINK-1299 3.7 01:24:05 62° SE 01:24:06 62° SE 01:28:19 10° ENE
STARLINK-1284 4.4 01:23:40 35° WNW 01:24:32 41° NNW 01:28:06 10° NE
STARLINK-1302 3.9 01:25:46 53° SE 01:25:46 53° SE 01:29:39 10° ENE
BREEZE-M DEB (TANK) 4.0 01:24:50 10° NW 01:26:50 18° N 01:28:36 10° NE
Alouette 2 Rocket 4.3 01:24:21 10° NNW 01:28:04 35° W 01:28:04 35° W
Spot 1 4.4 01:27:44 53° SSW 01:28:42 65° WSW 01:33:46 10° NNW
STARLINK-1273 3.7 01:30:32 58° SE 01:30:33 58° SE 01:34:37 10° ENE
Cosmos 2322 Rocket 3.0 01:29:42 30° SSE 01:31:46 42° ESE 01:37:00 10° NE
Cosmos 2150 Rocket 3.8 01:26:52 10° NNW 01:32:03 87° WSW 01:33:54 41° SSE
STARLINK-1288 3.6 01:35:19 63° SSE 01:35:31 64° SE 01:39:37 10° ENE
STARLINK-61 4.0 01:35:51 46° SE 01:35:51 46° SE 01:39:26 10° ENE
Cosmos 1697 Rocket 4.3 01:36:19 17° W 01:39:19 25° NW 01:44:00 10° N
Cosmos 2181 Rocket 4.3 01:34:16 10° NNW 01:40:30 53° W 01:42:49 36° SW
STARLINK-1308 3.5 01:40:08 65° S 01:40:31 72° SE 01:44:39 10° ENE
DELTA 2 DEB (DPAF) 4.2 01:40:14 53° SW 01:40:57 62° WSW 01:45:23 10° NNW
Resurs 1-4 Rocket 2.1 01:37:31 10° NNE 01:42:51 79° ESE 01:44:54 39° S
Cosmos 1400 Rocket 3.1 01:40:29 10° NNW 01:44:30 52° W 01:44:46 51° WSW
Cosmos 1125 Rocket 3.5 01:40:28 10° NNW 01:45:42 77° ENE 01:48:54 24° SSE
Meteor 2-17 Rocket 4.5 01:42:53 33° S 01:45:50 77° E 01:51:58 10° N
STARLINK-1304 3.5 01:49:41 58° SW 01:50:27 84° SE 01:54:36 10° NE
Cosmos 2227 Rocket 4.4 01:51:52 10° W 01:51:58 10° W 01:51:58 10° W
Cosmos 2154 Rocket 4.1 01:49:52 29° S 01:53:15 74° E 01:59:28 10° N
STARLINK-48 4.3 01:53:48 31° W 01:55:14 46° NNW 01:59:00 10° NE
STARLINK-1278 3.7 01:55:21 44° WSW 01:56:37 77° NW 02:00:54 10° NE
GEOS 3 Rocket 4.3 01:51:45 10° SE 01:56:48 56° NE 02:01:58 10° NNW
STARLINK-1280 3.7 01:57:08 42° WSW 01:58:27 75° NW 02:02:44 10° NE
Meteor 1-27 4.2 01:53:17 10° NNW 01:58:48 66° W 02:01:18 33° SSW
Cosmos 2298 Rocket 4.4 01:53:48 10° NNW 01:58:51 46° WSW 02:00:18 37° SW
SL-16 R/B 2.5 01:55:28 28° S 01:58:53 72° WSW 02:05:05 10° NNW
Cosmos 836 Rocket 4.5 01:56:55 38° SSW 01:59:01 84° WNW 02:04:21 10° NNE
STARLINK-69 4.4 01:59:20 29° SE 01:59:23 29° SE 02:02:32 10° ENE
Cosmos 2227 4.2 01:53:54 10° NNW 01:59:36 64° WSW 02:02:39 28° S
Cosmos 1241 Rocket 4.4 01:57:57 32° SW 02:00:55 76° WNW 02:07:12 10° NNE
STARLINK-21 4.5 02:00:55 28° SE 02:01:02 28° SE 02:04:10 10° ENE
Iridium 2 3.5 01:58:26 10° N 02:02:13 88° W 02:03:11 49° S
STARLINK-45 4.3 02:02:35 32° SE 02:02:47 32° SE 02:06:03 10° ENE
Meteor 2-2 Rocket 4.4 01:58:14 10° N 02:04:18 83° E 02:08:42 19° SSE
NOSS 2-1 (E) 3.0 02:04:58 53° WSW 02:05:33 66° NW 02:09:07 10° NNE
STARLINK-76 4.3 02:05:36 31° SE 02:05:53 31° SE 02:09:08 10° ENE
STARLINK-70 4.2 02:05:59 33° SSE 02:06:20 34° SE 02:09:40 10° ENE
STARLINK-1286 3.7 02:05:37 38° WSW 02:07:07 72° NW 02:11:18 10° NE
SL-16 R/B 2.2 02:04:36 33° SSW 02:07:14 84° WNW 02:12:57 10° NNE
STARLINK-23 4.2 02:07:11 32° SSE 02:07:31 32° SE 02:10:48 10° ENE
MOZ.5/SAFIR/RUBIN 5/SL-8 4.3 02:07:55 35° SW 02:08:53 39° W 02:13:15 10° NNW
STARLINK-32 4.2 02:08:37 32° SSE 02:08:58 33° SE 02:12:13 10° ENE
CRYOSAT 2 4.3 02:04:19 10° N 02:09:14 83° W 02:11:31 32° SSW
STARLINK-1281 3.7 02:08:48 36° WSW 02:10:21 70° NW 02:14:30 10° NE
STARLINK-40 4.1 02:10:18 33° SSE 02:10:45 35° SE 02:14:05 10° ENE
STARLINK-44 4.1 02:11:49 34° SSE 02:12:19 36° SE 02:15:40 10° ENE
CZ-2D R/B 2.3 02:08:51 10° N 02:13:57 56° WNW 02:16:21 30° SW
STARLINK-37 3.9 02:13:33 37° SSE 02:14:07 40° SE 02:17:33 10° ENE
Cosmos 2221 2.5 02:10:08 10° NNW 02:14:29 68° W 02:16:17 34° SSW
CZ-4C R/B 4.2 02:14:17 34° SW 02:15:10 38° W 02:19:20 10° NNW
STARLINK-1310 3.8 02:13:35 32° WSW 02:15:21 65° NNW 02:19:29 10° NE
STARLINK-36 4.0 02:14:56 35° SSE 02:15:33 38° SE 02:18:57 10° ENE
STARLINK-60 2.8 02:12:41 10° NW 02:15:52 87° SW 02:19:03 10° SE
USA 215 3.9 02:15:22 26° SSW 02:17:41 32° SW 02:23:26 10° WNW
STARLINK-63 3.8 02:18:10 38° S 02:18:55 44° SE 02:22:21 10° ENE
GP-B 4.3 02:15:30 10° NNW 02:19:17 28° W 02:20:25 24° WSW
Nadezhda 3 Rocket 4.0 02:13:38 10° N 02:19:58 76° W 02:24:39 19° S
IRIDIUM 114 4.3 02:16:46 24° S 02:19:58 85° E 02:25:13 10° N
Cosmos 1315 Rocket 2.9 02:16:18 10° NNW 02:20:10 56° W 02:21:25 37° SSW
STARLINK-35 3.8 02:19:32 37° S 02:20:16 42° SE 02:23:40 10° ENE
STARLINK-1319 4.0 02:18:21 28° WSW 02:20:19 60° NNW 02:24:26 10° NE
Cosmos 1842 Rocket 4.0 02:17:26 10° NNW 02:21:43 46° W 02:23:12 33° SW
STARLINK-51 3.8 02:21:14 37° S 02:22:04 45° SE 02:25:31 10° ENE
CBERS-1 4.0 02:18:27 10° NNE 02:23:37 89° ESE 02:26:39 25° SSW
STARLINK-30 3.8 02:22:49 37° S 02:23:43 46° SE 02:27:13 10° ENE
STARLINK-72 3.7 02:24:13 37° S 02:25:06 47° SE 02:28:34 10° ENE
STARLINK-1277 4.1 02:23:08 25° W 02:25:19 55° NNW 02:29:25 10° NE
Shenzhou-11 Module 1.4 02:26:47 78° NNW 02:26:50 79° N 02:29:16 10° E
STARLINK-1021 4.4 02:26:14 28° S 02:27:44 38° SE 02:31:36 10° ENE
STARLINK-59 3.5 02:27:25 38° SSW 02:28:26 54° SE 02:31:57 10° ENE
Cosmos 2058 2.9 02:27:01 32° SSW 02:28:51 67° W 02:33:04 10° N
IRIDIUM 103 4.3 02:25:55 24° S 02:29:08 80° W 02:34:23 10° N
Cosmos 2360 Rocket 2.4 02:25:44 22° S 02:29:19 65° ESE 02:34:55 10° NNE
STARLINK-1010 4.3 02:28:17 28° S 02:29:57 43° SE 02:33:59 10° ENE
STARLINK-56 3.6 02:29:04 36° SSW 02:30:12 54° SE 02:33:46 10° ENE
STARLINK-1276 4.2 02:27:56 22° W 02:30:20 51° NNW 02:34:24 10° NE
STARLINK-73 3.5 02:30:38 36° SSW 02:31:50 56° SE 02:35:23 10° ENE
STARLINK-1019 4.3 02:30:59 28° S 02:32:39 42° SE 02:36:35 10° ENE
STARLINK-38 3.4 02:32:12 35° SSW 02:33:27 58° SE 02:37:02 10° ENE
STARLINK-65 3.4 02:33:46 34° SSW 02:35:05 60° SE 02:38:41 10° ENE
STARLINK-1305 4.3 02:32:41 20° W 02:35:18 48° NNW 02:39:20 10° NE
STARLINK-68 3.3 02:34:23 34° SSW 02:35:46 66° SE 02:39:24 10° ENE
STARLINK-1306 4.5 02:33:14 19° W 02:35:59 46° NNW 02:40:04 10° NE
STARLINK-53 3.3 02:35:24 34° SSW 02:36:47 66° SE 02:40:24 10° ENE
STARLINK-1012 4.1 02:35:47 27° SSW 02:37:37 47° SE 02:41:36 10° ENE
Cosmos 1980 Rocket 4.2 02:34:02 10° W 02:37:43 17° NW 02:41:25 10° N
STARLINK-50 3.5 02:37:26 31° SSW 02:39:03 63° SE 02:42:49 10° ENE
STARLINK-1262 4.5 02:37:30 18° W 02:40:20 45° NNW 02:44:20 10° NE
CZ-4B R/B 4.1 02:36:23 10° N 02:41:22 45° WNW 02:44:31 21° SW
Cosmos 2333 Rocket 3.6 02:38:07 10° SSE 02:43:00 31° ESE 02:47:56 10° NE
STARLINK-71 3.5 02:41:45 28° SW 02:43:47 72° SE 02:47:48 10° ENE
Meteor 1-28 Rocket 4.0 02:41:44 10° SSE 02:45:21 51° ENE 02:49:00 10° N
Cosmos 2219 Rocket 3.6 02:42:16 10° SSE 02:47:07 31° ESE 02:51:58 10° NE
STARLINK-1026 3.9 02:45:20 25° SSW 02:47:32 56° SE 02:51:36 10° ENE
Cosmos 2322 4.4 02:43:30 13° S 02:48:22 50° ESE 02:53:53 10° NE
STARLINK-29 2.8 02:45:31 10° NW 02:48:43 88° NE 02:51:53 10° SE
ADEOS II 2.2 02:46:29 10° N 02:51:42 66° WNW 02:55:36 18° SSW
STARLINK-1013 3.8 02:50:08 23° SSW 02:52:31 62° SE 02:56:37 10° ENE
SL-4 R/B 2.5 02:49:06 10° WNW 02:53:44 50° SW 02:58:08 10° SSE
IRS-1D 4.0 02:49:23 10° N 02:54:27 48° WNW 02:58:00 18° SW
ERS-2 2.8 02:51:25 10° SSE 02:54:59 56° ENE 02:58:36 10° N
Cosmos 2263 Rocket 3.2 02:50:32 10° NW 02:55:01 25° WSW 02:57:35 18° SW
IDEFIX/ARIANE 42P 3.6 02:50:12 10° NNE 02:55:13 44° E 03:00:11 10° S
STARLINK-25 3.1 02:53:37 25° SW 02:55:32 87° NW 02:59:00 10° NE
Cosmos 1606 4.0 02:52:10 10° N 02:55:45 40° ENE 02:59:20 10° SSE
ATLAS 5 CENTAUR R/B 4.0 02:55:43 10° SE 02:57:28 12° ESE 02:59:16 10° E
STARLINK-1009 3.7 02:54:54 22° SW 02:57:28 68° SE 03:01:36 10° ENE
Cosmos 2341 Rocket 4.1 02:52:37 16° SSW 02:57:41 64° W 03:03:59 10° N
Cosmos 1892 3.8 02:56:52 20° WSW 02:58:36 29° WNW 03:01:56 10° NNW
BREEZE-M R/B 4.1 02:55:28 10° NW 02:58:40 29° N 03:00:58 10° ENE
ARIANE 5 R/B 2.4 02:55:52 10° NNE 03:00:54 88° WNW 03:05:23 13° SSW
STARLINK-1015 3.6 02:59:41 20° SW 03:02:26 75° SE 03:06:35 10° NE
CZ-2C R/B 3.8 03:01:48 10° NNE 03:05:25 41° E 03:09:04 10° S
CZ-2D R/B 3.7 03:01:38 10° NNE 03:05:55 73° ESE 03:10:16 10° S
Cosmos 1959 Rocket 4.5 03:00:28 10° S 03:06:37 89° W 03:12:45 10° N
STARLINK-24 3.6 03:03:57 18° WSW 03:06:53 74° NW 03:10:54 10° NE
STARLINK-1016 3.6 03:04:27 19° SW 03:07:25 82° SE 03:11:34 10° NE
USA 229 DEB 4.4 03:00:51 10° NW 03:07:28 37° WSW 03:14:17 10° S
USA 229 4.4 03:00:57 10° NW 03:07:35 37° WSW 03:14:25 10° S
STARLINK-1343 4.5 03:04:47 10° NW 03:07:44 38° NNE 03:10:41 10° E
IRS-1C 4.3 03:02:36 10° N 03:07:51 59° WNW 03:12:22 14° SSW
STARLINK-1346 4.5 03:05:03 10° NW 03:08:03 39° NNE 03:11:02 10° E
STARLINK-1328 4.5 03:05:30 10° NW 03:08:27 38° NNE 03:11:25 10° E
STARLINK-1354 4.4 03:05:47 10° NW 03:08:45 39° NNE 03:11:42 10° ESE
STARLINK-1347 4.4 03:06:04 10° NW 03:09:02 39° NNE 03:11:59 10° ESE
STARLINK-1357 4.4 03:06:30 10° NW 03:09:29 39° NNE 03:12:26 10° ESE
STARLINK-1335 4.4 03:06:47 10° NW 03:09:45 39° NNE 03:12:43 10° ESE
Cosmos 1844 4.1 03:03:58 10° NNW 03:09:48 73° ENE 03:15:33 10° SSE
STARLINK-1327 4.4 03:07:08 10° NW 03:10:06 40° NNE 03:13:04 10° ESE
STARLINK-1340 4.4 03:07:26 10° NW 03:10:24 40° NNE 03:13:22 10° ESE
STARLINK-1356 4.4 03:07:48 10° NW 03:10:48 40° NNE 03:13:45 10° ESE
STARLINK-1345 4.4 03:08:07 10° NW 03:11:05 40° NNE 03:14:04 10° ESE
STARLINK-1355 4.3 03:08:28 10° NW 03:11:28 41° NNE 03:14:26 10° ESE
STARLINK-1321 4.3 03:08:49 10° NW 03:11:49 41° NNE 03:14:47 10° ESE
STARLINK-1358 4.3 03:09:12 10° NW 03:12:12 41° NNE 03:15:10 10° ESE
STARLINK-1008 3.6 03:09:15 17° SW 03:12:24 89° SE 03:16:33 10° NE
STARLINK-1332 4.3 03:09:30 10° NW 03:12:29 41° NNE 03:15:28 10° ESE
STARLINK-1348 4.3 03:09:50 10° NW 03:12:50 42° NNE 03:15:49 10° ESE
STARLINK-1330 4.3 03:10:09 10° NW 03:13:09 42° NNE 03:16:08 10° ESE
STARLINK-1363 4.3 03:10:29 10° NW 03:13:29 42° NNE 03:16:28 10° ESE
STARLINK-1337 4.2 03:10:52 10° NW 03:13:52 42° NNE 03:16:51 10° ESE
STARLINK-1342 4.2 03:11:10 10° NW 03:14:10 43° NNE 03:17:10 10° ESE
STARLINK-1364 4.2 03:11:31 10° NW 03:14:31 43° NNE 03:17:31 10° ESE
STARLINK-1376 4.2 03:11:51 10° NW 03:14:52 43° NNE 03:17:51 10° ESE
STARLINK-1360 4.2 03:12:11 10° NW 03:15:12 44° NNE 03:18:12 10° ESE
STARLINK-1361 4.2 03:12:32 10° NW 03:15:32 44° NNE 03:18:32 10° ESE
STARLINK-81 3.5 03:12:44 15° WSW 03:15:35 64° NNW 03:19:12 10° NE
STARLINK-1367 4.1 03:12:48 10° NW 03:15:50 45° NNE 03:18:53 10° ESE
Cosmos 2322 Rocket 3.4 03:11:31 12° WSW 03:15:54 30° NW 03:20:51 10° N
STARLINK-1366 4.1 03:13:10 10° NW 03:16:11 44° NNE 03:19:12 10° ESE
NOSS 3-1 (A) 4.4 03:09:23 10° NW 03:16:48 47° WSW 03:25:04 10° S
CZ-4B R/B 4.4 03:14:57 10° ESE 03:16:56 16° ENE 03:18:57 10° NNE
Meteor 2-3 Rocket 4.4 03:11:53 10° S 03:17:19 55° E 03:22:46 10° NNE
STARLINK-54 3.7 03:14:25 14° WSW 03:17:21 56° NNW 03:20:54 10° NE
STARLINK-1014 3.6 03:14:03 15° SW 03:17:22 85° NNW 03:21:30 10° NE
SL-8 Rocket 4.1 03:11:28 11° SSW 03:17:24 61° W 03:23:36 10° N
Cosmos 1151 Rocket 3.3 03:13:53 10° N 03:18:18 74° E 03:22:39 10° SSE
STARLINK-77 3.6 03:15:52 14° WSW 03:18:50 60° NNW 03:22:26 10° NE
Cosmos 2344 4.4 03:11:50 10° S 03:18:54 43° ESE 03:26:04 10° NE
Cosmos 2151 3.4 03:17:06 14° SSW 03:20:38 46° WNW 03:24:48 10° N
Lacrosse 5 rocket 2.6 03:17:43 10° S 03:21:20 31° SE 03:24:48 10° ENE
Cosmos 2218 Rocket 4.1 03:15:30 10° SSW 03:21:49 68° W 03:28:13 10° N
Resurs 1-4 Rocket 4.1 03:19:03 10° NNW 03:22:00 15° WNW 03:24:56 10° W
H-2A R/B 2.1 03:17:48 10° SSE 03:22:12 85° WSW 03:26:45 10° NNW
STARLINK-1025 3.7 03:18:49 14° WSW 03:22:22 78° NW 03:26:31 10° NE
Cosmos 1766 Rocket 3.6 03:19:02 10° SSW 03:23:19 67° W 03:27:39 10° N
COBE Rocket 4.2 03:18:27 10° S 03:23:21 52° W 03:28:25 10° NNW
STARLINK-79 3.7 03:20:34 12° WSW 03:23:44 55° NNW 03:27:19 10° NE
STARLINK-52 3.2 03:20:54 10° WNW 03:23:59 46° SW 03:27:04 10° SSE
STARLINK-78 3.8 03:22:08 12° WSW 03:25:23 53° NNW 03:28:58 10° NE
Cosmos 1408 4.1 03:23:51 13° WSW 03:26:13 22° WNW 03:29:09 10° NNW
Okean 3 Rocket 3.9 03:22:07 11° SSW 03:26:25 53° W 03:30:52 10° N
STARLINK-57 3.9 03:23:43 11° WSW 03:27:02 49° NNW 03:30:34 10° NE
STARLINK-1017 3.7 03:23:34 12° WSW 03:27:18 72° NW 03:31:28 10° NE
STARLINK-49 3.9 03:25:12 11° WSW 03:28:33 50° NNW 03:32:05 10° NE
Cosmos 1515 Rocket 4.3 03:25:54 10° N 03:30:12 55° E 03:34:27 10° SSE
STARLINK-27 3.9 03:26:50 10° WSW 03:30:17 48° NNW 03:33:50 10° NE
STARLINK-74 4.0 03:28:24 10° WSW 03:31:55 47° NNW 03:35:26 10° NE
STARLINK-1023 3.8 03:28:21 11° WSW 03:32:17 67° NW 03:36:26 10° NE
Spot 4 Rocket 4.2 03:27:33 10° N 03:32:38 63° WNW 03:37:41 10° SSW
Cosmos 1825 3.3 03:30:16 12° SW 03:33:14 28° WNW 03:36:31 10° NNW
STARLINK-39 4.0 03:30:03 10° WSW 03:33:33 46° NNW 03:37:04 10° NE
STARLINK-1371 4.4 03:30:57 10° NW 03:34:50 53° NNE 03:38:42 10° ESE
STARLINK-31 4.1 03:31:44 10° WSW 03:35:13 44° NNW 03:38:44 10° NE
STARLINK-69 4.2 03:33:23 10° W 03:36:48 40° NNW 03:40:12 10° NE
STARLINK-1007 3.9 03:33:13 10° WSW 03:37:19 61° NNW 03:41:27 10° NE
STARLINK-21 4.2 03:35:04 10° WSW 03:38:30 41° NNW 03:41:58 10° NE
SL-08 R/B 4.2 03:34:48 10° SSW 03:38:47 28° W 03:42:47 10° NW
STARLINK-1341 4.3 03:35:20 10° NW 03:39:14 57° NNE 03:43:07 10° ESE
STARLINK-45 4.4 03:36:55 10° W 03:40:20 38° NNW 03:43:45 10° NE
STARLINK-1048 4.0 03:38:13 10° WSW 03:42:18 57° NNW 03:46:24 10° NE
STARLINK-76 4.3 03:40:01 10° W 03:43:26 38° NNW 03:46:52 10° NE
Cosmos 1346 Rocket 4.2 03:39:59 10° SSE 03:43:41 38° E 03:47:25 10° NNE
Cosmos 1818 4.0 03:38:28 10° SSW 03:43:46 61° ESE 03:49:09 10° NE
Cosmos 2237 Rocket 3.8 03:38:56 10° SSE 03:43:53 32° ESE 03:48:52 10° NE
STARLINK-1374 4.2 03:39:57 10° NW 03:43:55 61° NNE 03:47:54 10° ESE
STARLINK-70 4.4 03:40:39 10° W 03:44:05 37° NNW 03:47:32 10° NE
STARLINK-23 4.4 03:41:40 10° W 03:45:05 38° NNW 03:48:30 10° NE
Cosmos 1538 Rocket 4.5 03:40:06 10° SW 03:45:19 51° WNW 03:50:34 10° N
STARLINK-32 4.4 03:43:03 10° W 03:46:23 36° NNW 03:49:44 10° NE
CZ-4C R/B 3.4 03:43:31 10° S 03:47:00 46° W 03:50:31 10° NNW
STARLINK-1049 4.2 03:43:15 10° WSW 03:47:18 53° NNW 03:51:22 10° NE
STARLINK-1339 4.0 03:43:57 10° NW 03:47:53 65° NNE 03:51:49 10° ESE
STARLINK-40 4.4 03:44:58 10° W 03:48:20 36° NNW 03:51:44 10° NE
Cosmos 1844 Rocket 3.0 03:44:32 10° NW 03:49:48 43° WSW 03:55:01 10° S
STARLINK-44 4.5 03:46:34 10° W 03:49:55 35° NNW 03:53:18 10° NE
MSX 3.9 03:46:02 10° NNE 03:51:49 86° WNW 03:57:32 10° SSW
Centaur D-1A AC-31 4.4 04:22:57 10° W 04:47:01 27° SW 04:53:06 10° SSE
